Location: Altenhof
(50.2418°N, 10.8789°E)
Time: 03:42:03
(UTC+00:00)

Cosmos 2221 - Pass Details

Date: 18 February 2020
Orbit: 593 x 616 km, 82.5° (Epoch: 09 April)

Event Time Altitude Azimuth Distance (km) Brightness Sun altitude
Rises 04:28:08 0° 190° (S) 2,823 5.8 -19.0°
Reaches altitude 10° 04:30:19 10° 191° (S) 1,928 4.9 -18.7°
Maximum altitude 04:34:35 84° 280° (W) 609 2.4 -18.0°
Drops below altitude 10° 04:38:55 10° 9° (N) 1,957 5.3 -17.3°
Sets 04:41:09 0° 10° (N) 2,869 6.1 -16.9°
